Location: Potter Street
(51.7667°N, 0.1167°E)
Time: 07:22:09
(UTC+00:00)

Daily predictions for brighter satellites

Satellite Brightness Start Highest point End
(mag) Time Altitude Azimuth Time Altitude Azimuth Time Altitude Azimuth
IRS-1A Rocket 4.4 20:26:59 10° SSE 20:32:36 73° ENE 20:38:10 10° NNW
Cosmos 1943 Rocket 3.1 20:27:54 10° NW 20:33:20 47° WSW 20:38:42 10° S
Cosmos 1420 Rocket 4.1 20:29:04 10° NNW 20:34:25 79° ENE 20:39:44 10° SSE
USA 281 3.7 20:28:33 10° SE 20:34:54 52° NE 20:41:16 10° NNW
Cosmos 1743 3.4 20:34:22 10° N 20:37:45 35° ENE 20:41:06 10° SE
Cosmos 2278 Rocket 4.0 20:33:09 10° NW 20:37:55 28° WSW 20:42:39 10° SSW
NOSS 3-1 (A) 4.3 20:31:38 10° NW 20:38:45 72° SW 20:47:27 10° SSE
ISS -3.8 20:35:37 10° W 20:38:58 90° NNW 20:42:18 10° E
Cosmos 972 4.4 20:35:58 10° S 20:40:49 67° ESE 20:45:46 10° NNE
USA 245 2.3 20:42:46 10° SSE 20:44:57 47° ENE 20:47:09 10° N
Cosmos 2297 3.8 20:39:43 10° NNW 20:45:30 74° ENE 20:51:13 10° SE
Cosmos 1634 Rocket 4.3 20:39:54 10° N 20:46:06 55° ENE 20:52:13 10° SSE
USA 290 2.8 20:46:48 10° NNW 20:49:59 55° WSW 20:53:08 10° S
Cosmos 2112 Rocket 4.3 20:45:09 10° S 20:50:17 50° ESE 20:55:24 10° NNE
Cosmos 1766 Rocket 3.8 20:46:30 10° N 20:50:54 60° ENE 20:55:17 10° SSE
Okean-O 3.6 20:48:20 10° S 20:52:34 45° W 20:56:49 10° NNW
USA 229 DEB 4.1 20:46:26 10° NW 20:53:42 75° NE 21:01:40 10° SE
USA 229 4.1 20:46:31 10° NW 20:53:48 75° NE 21:01:47 10° SE
Cosmos 2034 Rocket 4.2 20:48:55 10° NNW 20:55:08 78° W 21:01:22 10° S
Cosmos 1726 3.3 20:53:42 10° NNE 20:56:16 22° ENE 20:58:35 11° ESE
Cosmos-2242 4.2 20:52:32 10° SSW 20:56:34 44° WNW 21:00:39 10° N
Spot 2 Rocket 3.5 20:54:24 10° SSE 20:59:23 72° ENE 21:04:26 10° NNW
Cosmos 1680 Rocket 3.5 20:55:13 10° SSW 21:00:28 70° ESE 21:05:44 10° NNE
USA 32 4.1 21:02:08 10° S 21:07:17 62° E 21:12:27 10° NNE
Cosmos 1933 4.4 21:05:29 10° SSW 21:09:17 46° WNW 21:13:07 10° N
Tsikada Rocket 4.0 21:03:33 10° S 21:09:42 76° E 21:15:58 10° NNE
CZ-4C R/B 4.1 21:06:32 10° N 21:10:06 51° WNW 21:13:49 10° SSW
USA 276 2.0 21:11:59 10° W 21:14:04 36° SSW 21:15:14 20° SE
Cosmos 2263 4.3 21:09:19 10° NNW 21:15:00 72° ENE 21:20:00 14° SE
MetOp-A 4.2 21:11:24 13° SE 21:15:09 49° ENE 21:19:47 10° N
SL-16 R/B 2.2 21:10:10 10° SSW 21:15:49 74° ESE 21:21:31 10° NNE
Cosmos 2056 Rocket 4.0 21:12:57 10° NNW 21:18:17 60° WSW 21:23:28 10° S
MOS 1 Rocket 3.5 21:13:56 12° SSE 21:18:39 79° ENE 21:23:57 10° NNW
Lacrosse 5 3.0 21:14:28 10° WNW 21:19:02 33° SW 21:23:08 12° SSE
Cosmos 1536 3.6 21:15:53 10° N 21:19:30 37° ENE 21:22:15 16° SE
Cosmos 1624 Rocket 4.4 21:15:32 10° NNW 21:20:38 58° WSW 21:25:35 11° S
Lacrosse 5 rocket 1.3 21:17:00 10° SW 21:21:17 80° SSE 21:25:31 10° ENE
Ariane Rocket 3.1 21:16:49 10° SSE 21:21:50 79° WSW 21:26:57 10° NNW
Cosmos 1452 Rocket 3.9 21:17:17 10° NNW 21:22:28 55° ENE 21:26:45 15° SE
Cosmos 1408 Rocket 4.2 21:18:38 10° N 21:22:53 43° ENE 21:26:12 16° SE
Cosmos 44 3.9 21:18:14 10° NW 21:22:57 47° WSW 21:26:45 14° SSE
Spot 1 4.3 21:20:22 10° NNE 21:24:16 43° E 21:27:36 14° S
Cosmos 1340 4.4 21:24:21 10° NNE 21:26:48 18° ENE 21:28:49 12° ESE
Cosmos 2369 Rocket 2.3 21:22:04 10° NNW 21:27:41 77° WSW 21:32:23 15° SSE
Cosmos 2221 2.8 21:24:06 10° SSW 21:28:25 72° WNW 21:32:45 10° N
Cosmos 2084 3.8 21:27:42 10° NW 21:31:18 43° SW 21:33:53 17° SSE
FALCON 9 R/B 4.5 21:29:06 10° SW 21:35:06 29° SSE 21:50:34 10° ESE
USA 306 2.8 21:37:17 10° WNW 21:41:05 71° NNE 21:44:59 10° E
Cosmos 2237 Rocket 4.1 21:38:03 10° WSW 21:43:10 33° NW 21:48:19 10° NNE
Cosmos 921 Rocket 3.1 21:38:53 10° SSW 21:43:22 89° SE 21:47:54 10° NNE
Okean 3 Rocket 3.7 21:40:12 10° NNW 21:44:38 74° W 21:48:05 16° S
GEOS 3 Rocket 3.5 21:41:08 10° NE 21:46:21 78° SE 21:51:29 10° SW
ATLAS 3B R/B 4.0 21:43:34 10° NW 21:50:32 36° WSW 21:57:02 11° S
Landsat 5 3.1 21:48:13 10° NNE 21:52:01 76° ESE 21:54:55 16° S
Cosmos 1500 Rocket 3.6 21:50:59 10° N 21:55:19 66° ENE 21:57:58 22° SSE
Terra 3.1 21:52:58 10° SSW 21:57:15 34° W 22:01:33 10° NNW
Cosmos 1733 3.4 21:55:01 10° N 21:58:27 47° ENE 22:00:07 25° SE
Cosmos 1943 3.3 21:53:56 11° S 21:59:12 55° ESE 22:04:44 10° NE
ALOS 2 4.5 21:58:50 11° ESE 22:01:50 21° ENE 22:05:05 10° NNE
USA 234 3.7 21:55:38 10° E 22:02:05 63° NNE 22:08:32 10° WNW
Cosmos 1048 Rocket 3.9 21:59:00 12° SSW 22:03:40 67° ESE 22:08:46 10° NNE
Cosmos 1805 Rocket 3.6 21:59:52 10° N 22:04:14 67° ENE 22:06:48 24° SSE
H-2A R/B 3.5 22:02:30 19° ESE 22:04:55 34° ENE 22:08:44 10° N
Cosmos 1842 Rocket 3.8 22:01:41 12° SSW 22:05:52 69° WNW 22:10:17 10° N
Lacrosse 4 Rocket 3.4 22:03:19 10° NNW 22:06:30 22° NE 22:09:43 10° E
Cosmos 494 Rocket 3.9 22:01:45 10° SSW 22:06:52 88° WNW 22:12:01 10° NNE
Meteor 1-10 Rocket 4.2 22:02:23 14° S 22:07:28 83° E 22:13:09 10° NNE
Cosmos 1151 Rocket 3.8 22:08:37 24° SE 22:10:37 37° E 22:14:39 10° NNE
Meteor 2-9 Rocket 4.3 22:05:05 10° NNW 22:10:55 86° ENE 22:14:56 21° SSE
Cosmos 1302 Rocket 4.2 22:08:43 10° NNW 22:13:54 62° ENE 22:17:13 22° SE
Meteor 1-11 Rocket 3.9 22:08:34 10° NNW 22:14:10 73° W 22:18:13 20° S
ISS -3.5 22:12:17 10° W 22:15:31 50° SSW 22:16:32 35° SSE
Cosmos 1633 Rocket 4.4 22:11:52 10° N 22:15:46 29° ENE 22:18:08 18° ESE
Meteor 2-10 4.2 22:10:26 10° NNW 22:16:06 89° W 22:19:41 23° S
ATLAS 2AS CENTAUR R/B 4.1 22:10:22 10° W 22:17:16 43° NNW 22:23:54 10° NE
Meteor 1-19 Rocket 4.4 22:14:06 20° S 22:18:18 66° E 22:24:04 10° NNE
ARIANE 5 R/B 2.7 22:16:04 26° SSE 22:18:29 68° ENE 22:22:47 10° N
Cosmos 1340 Rocket 3.2 22:17:22 28° SSE 22:19:05 48° E 22:22:57 10° NNE
USA 59 Rocket 0.6 22:15:47 10° NW 22:19:17 48° NE 22:22:59 15° ESE
USA 281 4.0 22:14:24 15° S 22:19:31 43° WSW 22:25:47 10° NW
Cosmos 1331 Rocket 4.2 22:14:48 10° NNW 22:20:01 64° WSW 22:23:13 23° S
NOSS 2-1 (E) 4.1 22:16:38 10° NW 22:20:08 49° NE 22:23:50 15° ESE
MINOTAUR 4 R/B 4.0 22:18:54 10° NNE 22:21:48 44° ESE 22:22:22 39° SE
Cosmos 1110 Rocket 4.4 22:16:41 10° NNW 22:21:54 58° WSW 22:25:12 22° S
BREEZE-M DEB (TANK) 4.3 22:18:47 10° WSW 22:22:48 69° SSE 22:40:22 10° E
CZ-2C R/B 3.8 22:20:35 10° NNE 22:25:05 57° E 22:27:22 27° S
Cosmos 1726 3.6 22:26:51 10° NW 22:29:27 24° W 22:31:07 16° SW
NOSS 2-1 (D) 3.7 22:28:13 10° NW 22:31:47 61° NE 22:34:55 19° ESE
Nadezhda 4 Rocket 3.9 22:30:38 20° S 22:35:05 85° E 22:41:22 10° N
Cosmos 1805 3.1 22:35:02 10° N 22:38:47 75° E 22:40:09 37° SSE
IRIDIUM 106 4.3 22:36:39 10° N 22:41:55 78° E 22:44:46 28° SSE
Cosmos 1743 Rocket 4.0 22:41:22 10° NNW 22:45:39 53° W 22:47:56 25° SSW
Sich 1 3.8 22:46:09 10° NNW 22:50:18 44° W 22:52:35 23° SSW
Spot 2 4.4 22:50:57 29° SE 22:53:13 65° ENE 22:58:00 10° N
Cosmos 1975 2.7 22:51:45 10° N 22:55:43 89° E 22:57:09 38° S
Lacrosse 5 rocket 2.6 22:55:50 10° W 22:59:56 44° NNW 23:03:55 10° ENE
SL-16 R/B 4.2 22:55:37 10° W 23:00:30 29° NW 23:05:25 10° NNE
Cosmos 1340 3.4 22:58:02 10° NNW 23:01:13 37° W 23:02:14 29° SW
Cosmos 1603 3.7 22:57:29 15° SSW 23:02:13 83° WNW 23:07:59 10° NNE
Cosmos 1626 2.1 23:04:41 44° ESE 23:05:06 48° E 23:08:15 10° NNE
PSLV R/B 4.0 23:02:24 10° N 23:06:29 73° WNW 23:08:26 29° SSW
NOSS 2-1 (C) 3.4 23:03:20 10° NW 23:07:02 78° SW 23:09:08 32° SE
USA 267 3.6 23:01:00 10° ENE 23:07:09 42° SE 23:10:42 24° SSW
Cosmos 1674 4.1 23:07:50 21° ESE 23:08:20 21° E 23:11:04 10° NE
Meteor 1-27 Rocket 4.3 23:04:40 16° SW 23:08:58 53° WNW 23:14:24 10° N
Cosmos 2369 Rocket 4.3 23:07:52 10° WNW 23:10:45 14° W 23:13:38 10° SW
USA 306 2.9 23:11:04 10° WNW 23:14:48 46° SSW 23:15:15 44° S
Cosmos 2026 Rocket 4.0 23:12:22 26° S 23:16:14 90° W 23:22:33 10° N
Cosmos 1833 Rocket 4.1 23:17:10 20° SE 23:18:52 23° ESE 23:23:10 10° NE
Cosmos 220 Rocket 3.9 23:30:05 39° S 23:31:37 72° ESE 23:35:57 10° NNE
Cosmos 1515 Rocket 3.9 23:31:37 36° SSE 23:33:01 52° E 23:37:15 10° NNE
GP-B 4.5 23:30:12 10° NNE 23:34:02 28° E 23:35:54 21° ESE
Cosmos 1328 Rocket 3.6 23:33:10 35° SSW 23:34:56 76° W 23:39:18 10° N
SL-8 R/B 3.7 23:31:25 10° WSW 23:36:04 54° S 23:40:44 10° E
Cosmos 1553 Rocket 3.9 23:30:19 10° N 23:36:26 88° W 23:39:39 30° S
Meteor 1-18 Rocket 4.4 23:33:56 27° SSW 23:37:21 80° WNW 23:43:20 10° NNE
ALOS 2 2.8 23:36:13 36° SSW 23:37:48 60° WSW 23:42:10 10° NNW
Spot 4 4.4 23:37:28 30° SSW 23:39:23 45° W 23:43:59 10° NNW
H-2A R/B 3.7 23:38:30 24° SW 23:39:53 29° W 23:43:36 10° NNW
Cosmos 1470 Rocket 3.6 23:35:41 10° NNW 23:40:09 73° W 23:41:47 38° S
Cosmos 1869 Rocket 4.5 23:36:50 10° N 23:40:57 40° ENE 23:42:59 25° SE
USA 234 3.2 23:38:51 12° SE 23:45:04 76° SSW 23:51:39 10° WNW
Lacrosse 4 Rocket 1.2 23:41:10 10° NW 23:45:14 75° SW 23:46:29 43° SSE
Meteor 2-4 Rocket 4.2 23:42:30 23° SW 23:46:12 60° WNW 23:52:07 10° N
NOSS 8 (A) 4.2 23:46:21 54° SSW 23:47:02 76° SE 23:50:06 10° NE
Cosmos 1633 Rocket 4.1 23:49:30 10° NNW 23:53:32 36° W 23:55:08 27° SW
